Regional Weather Roundup
Issued by NWS

Home | Current Version | Previous Version | Text Only | Print | Product List | Glossary On
Versions: 1 2 3 4 5 6 7 8 9 10 11 12 13 14 15 16 17 18 19 20 21 22 23 24 25 26 27 28 29 30 31 32 33 34 35 36 37 38 39 40 41 42 43 44 45 46 47 48 49 50
000
ASUS42 KTBW 281717
RWRFL
FLORIDA REGIONAL WEATHER ROUNDUP
NATIONAL WEATHER SERVICE TAMPA BAY RUSKIN FL
100 PM EDT TUE JUL 28 2015

NOTE: "FAIR" INDICATES FEW OR NO CLOUDS BELOW 12,000 FEET WITH NO
SIGNIFICANT WEATHER AND/OR OBSTRUCTIONS TO VISIBILITY.


FLZ001>010-012>015-112-114-115-281800-
PANHANDLE FLORIDA

CITY           SKY/WX    TMP DP  RH WIND       PRES   REMARKS
PENSACOLA      SUNNY     94  73  50 VRB7      29.99S HX 103
PENSACOLA NAS  MOSUNNY   93  72  50 VRB5      29.98F HX 101
MILTON NAS     MOSUNNY   93  74  53 N3        29.99  HX 103
CRESTVIEW      SUNNY     95  75  52 N9        30.00F HX 107
DUKE FIELD     MOSUNNY   94  73  48 N7        29.99F HX 103
VALPARAISO     MOSUNNY   96  71  45 N7        29.98F HX 103
MARY ESTHER    DRIZZLE   93  70  46 VRB3      29.97  HX  99
TRI COUNTY     FAIR      96  74  48 VRB5      29.98F HX 107
PANAMA CITY    FAIR      94  74  52 NW10      29.96F HX 104
TYNDALL AFB    SUNNY     89  78  69 W8        29.97F HX 103
APALACHICOLA   SUNNY     96  72  45 VRB6      29.97S HX 104

STATION/POSITION SKY/WX   TEMP    WIND        PRES    WAVE   SWELL
                          AIR SEA DIR/SP/G            HT/PER HT/PER
                          (F)     (DEG/KT/KT) (MB)    (FT/S) (FT/S)
30.1N   87.6W              85 85  270/  4/  4 1015.2F   1
29.2N   88.2W              87 88  350/  6/  8 1016.4F   1
28.8N   86.0W              87 87  320/ 12/ 14 1015.9F   2/ 3
PANAMA CITY BEAC           83 83  260/  8/  9 1015.1F
CAPE SAN BLAS    NOT AVBL
TOWER C                    84      90/  3/  4 1015.2R
28.5N   84.5W              85 85   10/  6/  6 1015.3F   4/ 5   3/ 5

$$
FLZ011-016>038-118-127-128-134-139-239-281800-
NORTH FLORIDA

CITY           SKY/WX    TMP DP  RH WIND       PRES   REMARKS
MARIANNA       SUNNY     93  77  59 N6        29.97F HX 107
TALLAHASSEE    MOSUNNY   96  70  42 NE7       29.97S HX 102
PERRY          SUNNY     89  74  60 NE3       29.98S HX  99
CROSS CITY       N/A     89  76  65 N9        29.97S HX 100
LAKE CITY      PTSUNNY   86  75  70 N10       29.97F HX  95
GAINESVILLE    PTSUNNY   87  75  67 VRB5      29.96S HX  96
MAYPORT NAS    PTSUNNY   86  75  69 NE10      29.97R HX  95
JACKSONVILLE   LGT RAIN  83  76  79 N6        29.96S
JAX NAS        PTSUNNY   91  74  57 N12       29.96S HX 100
JAX CRAIG      PTSUNNY   88  73  61 NE9       29.96S HX  95
JAX CECIL      PTSUNNY   86  77  74 N14       29.96F HX  97
FERNANDINA BEA FAIR      90  75  62 NE10      29.96R HX 100
ST AUGUSTINE   PTSUNNY   85  77  77 NE12      29.97R HX  95

STATION/POSITION SKY/WX   TEMP    WIND        PRES    WAVE   SWELL
                          AIR SEA DIR/SP/G            HT/PER HT/PER
                          (F)     (DEG/KT/KT) (MB)    (FT/S) (FT/S)
SHELL POINT                89     240/  2/  4   N/A
KEATON BEACH               87      20/  2/  5 1015.0F
CEDAR KEY                  85     330/  7/  9 1015.0S
FERNANDINA                 85 84   30/  6/  9 1014.2F
30.7N   81.3W                 83                N/A     2/ 6
MAYPORT                    82 82   50/  8/ 10 1015.0F
31.4N   80.9W              82 83   50/ 10/ 10 1015.1F   2/ 5   2/ 5
ST AUGUSTINE               79 81   10/  9/  9 1015.1F

$$
FLZ040-043>046-052-053-057-058-063-144-281800-
INTERIOR CENTRAL FLORIDA

CITY           SKY/WX    TMP DP  RH WIND       PRES   REMARKS
OCALA          PTSUNNY   84  75  74 N6        29.96F
THE VILLAGES     N/A     86  86 100 VRB5      29.86S HX 112
LEESBURG       CLOUDY    83  76  79 MISG      29.96F
SANFORD        CLOUDY    79  76  90 SW9       29.96S
ORLANDO EXEC   CLOUDY    82  79  90 SW7       29.96F FOG
ORLANDO INTL   PTSUNNY   87  76  69 S15       29.96F HX  97
KISSIMMEE      PTSUNNY   86  79  79 SW10      29.97F HX  99
WINTER HAVEN   PTSUNNY   84  77  79 S10       29.99S
LAKELAND       PTSUNNY   84  75  74 SW9       29.98F
OKEECHOBEE     PTSUNNY   88  73  62 SW15G21   30.00F HX  96

$$
FLZ041-047-054-059-064-141-147-281800-
EAST CENTRAL FLORIDA

CITY           SKY/WX    TMP DP  RH WIND       PRES   REMARKS
ORMOND BEACH   LGT RAIN  82  77  83 SW8       29.95S
DAYTONA BEACH  HVY RAIN  79  76  90 SW12G22   29.96S FOG
DELAND           N/A     82  77  83 CALM      29.97S
NEW SMYRNA BEA PTSUNNY   86  75  70 SW12G17   29.96F HX  95
JFK SPACE CTR  MOSUNNY   89  74  61 MISG      29.94F HX  99
CAPE CANAVERAL SUNNY     91  74  58 SW14      29.94F HX 100
PATRICK AFB    SUNNY     91  74  56 SW16      29.95F HX 100
MELBOURNE      PTSUNNY   90  74  59 SW18G25   29.96F HX  99
VERO BEACH     MOSUNNY   91  74  57 S15       29.98F HX 100
FT PIERCE      MOSUNNY   91  74  57 SW14      29.99S HX 100
STUART         PTSUNNY   91  70  49 SW14G23   30.01F HX  97

STATION/POSITION SKY/WX   TEMP    WIND        PRES    WAVE   SWELL
                          AIR SEA DIR/SP/G            HT/PER HT/PER
                          (F)     (DEG/KT/KT) (MB)    (FT/S) (FT/S)
28.5N   80.2W              80 81  180/ 12/ 14 1015.4S
28.9N   78.5W              84 84  230/ 16/ 17 1015.9F
TRIDENT PIER               87 79  210/ 15/ 19 1015.3F
28.4N   80.5W                 78                N/A     2/11
27.5N   80.2W                 77                N/A     1/12

$$
FLZ050-056-061-142-242-148-248-149-249-151-251-155-255-
160-260-281800-
WEST CENTRAL FLORIDA

CITY           SKY/WX    TMP DP  RH WIND       PRES   REMARKS
CRYSTAL RIVER  FAIR      88  75  66 CALM      29.96S HX  97
INVERNESS      PTSUNNY   86  77  74 CALM      29.96S HX  97
BROOKSVILLE    PTSUNNY   82  78  88 W7        29.98S
ZEPHYRHILLS    CLOUDY    79  79 100 W12G22    29.98S FOG
CLEARWATER     CLOUDY    82  76  81 W12       29.99S
TAMPA INTL     RAIN      80  76  87 W10G20    29.99S
TAMPA EXEC     LGT RAIN  82  77  83 W6        29.99S
PLANT CITY     PTSUNNY   86  77  74 W15G24    30.00F HX  97
MACDILL AFB    PTSUNNY   87  80  78 W7        29.98F HX 102
PETER O KNIGHT CLOUDY    86  77  74 W9        29.98F HX  97
ST PETERSBURG  PTSUNNY   84  74  71 W16       29.97F
SARASOTA       PTSUNNY   86  76  71 W15       29.99S HX  96
VENICE         FAIR      86  77  74 W10       30.02F HX  97

STATION/POSITION SKY/WX   TEMP    WIND        PRES    WAVE   SWELL
                          AIR SEA DIR/SP/G            HT/PER HT/PER
                          (F)     (DEG/KT/KT) (MB)    (FT/S) (FT/S)
CEDAR KEY                  85     330/  7/  9 1015.0S
28.5N   84.5W              85 85   10/  6/  6 1015.3F   4/ 5   3/ 5
27.3N   84.2W                 85                N/A     3/ 4
CLEARWATER BEACH           81 83  270/ 14/ 18 1015.8R
MIDDLE TAMPA BAY           81     290/ 14/ 17 1016.1R
VENICE                     84 85  270/ 10/ 11 1015.7F

$$
FLZ066-069-070-075>078-162-262-165-265-281800-
SOUTHWEST FLORIDA AND KEYS

CITY           SKY/WX    TMP DP  RH WIND       PRES   REMARKS
PUNTA GORDA    MOSUNNY   83  77  82 SW10      30.03S
FT MYERS       SUNNY     89  75  63 W20       30.01S HX  99
SOUTHWEST INTL PTSUNNY   88  76  67 SW16      30.02S HX  99
NAPLES         MOSUNNY   90  79  70 W9        30.03S HX 106
MARCO ISLAND   MOSUNNY   90  73  58 W8        30.03F HX  98
MARATHON       PTSUNNY   90  78  68 CALM      30.04F HX 104
KEY WEST NAS   MOSUNNY   88  76  67 VRB5      30.04F HX  99
KEY WEST INTL  MOSUNNY   88  76  67 S6        30.04F HX  99

STATION/POSITION SKY/WX   TEMP    WIND        PRES    WAVE   SWELL
                          AIR SEA DIR/SP/G            HT/PER HT/PER
                          (F)     (DEG/KT/KT) (MB)    (FT/S) (FT/S)
VENICE                     84 85  270/ 10/ 11 1015.7F
NAPLES                        84              1018.1F
26.0N   85.6W              85 85  280/  8/  8 1016.9R   2/ 9   2/ 9
DRY TORTUGAS               85     300/  2/  3 1018.0R
NW FL BAY                  86     270/  3/  4 1017.7
SAND KEY                   86     190/  2/  3 1017.5F
SOMBRERO KEY               87     180/  2/  3 1017.9F
LONG KEY                   85 87  260/  1/  2 1018.0F
MOLASSES REEF              85 88  200/  2/  3 1017.0F

$$
FLZ067-068-071>074-168-172>174-281800-
SOUTHEAST FLORIDA

CITY           SKY/WX    TMP DP  RH WIND       PRES   REMARKS
W PALM BEACH   PTSUNNY   90  73  57 SW13      30.02F HX  98
FT LAUDER-EXEC PTSUNNY   93  71  48 SW9       30.01F HX 100
FT LAUDERDALE  PTSUNNY   93  74  53 W8        30.00F HX 103
POMPANO BEACH  PTSUNNY   92  68  45 SW8       30.01F HX  96
PEMBROKE PINES PTSUNNY   93  70  46 SW8       30.02F HX  99
OPA LOCKA      PTSUNNY   92  72  51 SW7       30.02F HX  99
MIAMI          PTSUNNY   92  70  48 W7        30.02F HX  97
WEST KENDALL   MOSUNNY   92  72  51 SW10      30.02F HX  99
HOMESTEAD      MOSUNNY   91  76  62 E10       30.01F HX 103

STATION/POSITION SKY/WX   TEMP    WIND        PRES    WAVE   SWELL
                          AIR SEA DIR/SP/G            HT/PER HT/PER
                          (F)     (DEG/KT/KT) (MB)    (FT/S) (FT/S)
PORT EVERGLADES            87     150/ 11/ 13 1016.4F
VIRGINIA KEY               86 86  210/  8/ 10 1016.8F
LAKE WORTH                 87 85  210/  9/ 12 1016.5F
SETTLEMENT POINT           85     220/ 11/ 12 1017.4F

$$




USA.gov is the U.S. government's official web portal to all federal, state and local government web resources and services.